| time (UTC) | temp F | wind direction | speed MPH | gust MPH | rain 1hr in | rain 24hr in | rain mn in | humidity % | barometer mb |
| 20260508171543 | 52 | 0 | 0.0 | 0.0 | 0.00 | 0.00 | 0.00 | 76 | 1020.2 |
| 20260508170038 | 52 | 0 | 0.0 | 0.0 | 0.00 | 0.00 | 0.00 | 78 | 1019.9 |
| 20260508164539 | 52 | 0 | 0.0 | 0.0 | 0.00 | 0.00 | 0.00 | 77 | 1019.9 |
| 20260508163045 | 52 | 0 | 0.0 | 0.0 | 0.00 | 0.00 | 0.00 | 77 | 1019.8 |
| 20260508161539 | 52 | 0 | 0.0 | 0.0 | 0.00 | 0.00 | 0.00 | 76 | 1019.6 |
| 20260508160059 | 52 | 0 | 0.0 | 0.0 | 0.00 | 0.00 | 0.00 | 78 | 1019.6 |
| 20260508154539 | 52 | 0 | 0.0 | 0.0 | 0.00 | 0.00 | 0.00 | 77 | 1019.7 |
| 20260508153044 | 52 | 0 | 0.0 | 0.0 | 0.00 | 0.00 | 0.00 | 78 | 1019.6 |
| 20260508151543 | 52 | 0 | 0.0 | 0.0 | 0.00 | 0.00 | 0.00 | 79 | 1019.7 |
| 20260508150038 | 51 | 0 | 0.0 | 0.0 | 0.00 | 0.00 | 0.00 | 82 | 1019.7 |
| 20260508144536 | 50 | 0 | 0.0 | 0.0 | 0.00 | 0.00 | 0.00 | 84 | 1019.4 |
| 20260508143043 | 49 | 0 | 0.0 | 0.0 | 0.00 | 0.00 | 0.00 | 85 | 1019.1 |
| 20260508141550 | 49 | 0 | 0.0 | 0.0 | 0.00 | 0.00 | 0.00 | 85 | 1019.0 |
| 20260508140040 | 49 | 0 | 0.0 | 0.0 | 0.00 | 0.00 | 0.00 | 87 | 1018.7 |
| 20260508134552 | 49 | 0 | 0.0 | 0.0 | 0.00 | 0.00 | 0.00 | 87 | 1018.5 |
| 20260508133043 | 49 | 0 | 0.0 | 0.0 | 0.00 | 0.00 | 0.00 | 87 | 1018.2 |
| 20260508131535 | 49 | 0 | 0.0 | 0.0 | 0.00 | 0.00 | 0.00 | 87 | 1018.0 |
| 20260508130042 | 49 | 0 | 0.0 | 0.0 | 0.00 | 0.00 | 0.00 | 86 | 1018.0 |
| 20260508124538 | 49 | 0 | 0.0 | 0.0 | 0.00 | 0.00 | 0.00 | 86 | 1017.7 |
| 20260508123038 | 49 | 0 | 0.0 | 0.0 | 0.00 | 0.00 | 0.00 | 86 | 1017.5 |
| 20260508121555 | 49 | 0 | 0.0 | 0.0 | 0.00 | 0.00 | 0.00 | 87 | 1017.6 |
| 20260508120038 | 49 | 0 | 0.0 | 0.0 | 0.00 | 0.00 | 0.00 | 87 | 1017.4 |
| 20260508114539 | 50 | 0 | 0.0 | 0.0 | 0.00 | 0.00 | 0.00 | 87 | 1017.4 |
| 20260508113041 | 49 | 0 | 0.0 | 0.0 | 0.00 | 0.00 | 0.00 | 88 | 1017.2 |
| 20260508111537 | 49 | 0 | 0.0 | 0.0 | 0.00 | 0.00 | 0.00 | 89 | 1017.1 |
| 20260508110048 | 50 | 0 | 0.0 | 0.0 | 0.00 | 0.00 | 0.00 | 89 | 1017.1 |
| 20260508104536 | 50 | 0 | 0.0 | 0.0 | 0.00 | 0.00 | 0.00 | 89 | 1016.7 |
| 20260508103039 | 49 | 0 | 0.0 | 0.0 | 0.00 | 0.00 | 0.00 | 90 | 1016.7 |
| 20260508101538 | 49 | 0 | 0.0 | 0.0 | 0.00 | 0.00 | 0.00 | 92 | 1016.7 |
| 20260508100038 | 49 | 0 | 0.0 | 0.0 | 0.00 | 0.00 | 0.00 | 92 | 1016.6 |
| 20260508094538 | 49 | 0 | 0.0 | 0.0 | 0.00 | 0.00 | 0.00 | 92 | 1016.6 |
| 20260508093042 | 48 | 0 | 0.0 | 0.0 | 0.00 | 0.00 | 0.00 | 90 | 1016.6 |
| 20260508091540 | 49 | 0 | 0.0 | 0.0 | 0.00 | 0.00 | 0.00 | 90 | 1016.6 |
| 20260508090040 | 49 | 0 | 0.0 | 0.0 | 0.00 | 0.00 | 0.00 | 89 | 1016.6 |
| 20260508084538 | 49 | 0 | 0.0 | 0.0 | 0.00 | 0.00 | 0.00 | 89 | 1016.5 |
| 20260508083115 | 49 | 0 | 0.0 | 0.0 | 0.00 | 0.00 | 0.00 | 88 | 1016.5 |
| 20260508081538 | 49 | 0 | 0.0 | 0.0 | 0.00 | 0.00 | 0.00 | 88 | 1016.4 |
| 20260508080035 | 50 | 0 | 0.0 | 0.0 | 0.00 | 0.00 | 0.00 | 87 | 1016.5 |
| 20260508074539 | 50 | 0 | 0.0 | 0.0 | 0.00 | 0.00 | 0.00 | 86 | 1016.5 |
| 20260508073039 | 50 | 0 | 0.0 | 0.0 | 0.00 | 0.00 | 0.00 | 86 | 1016.6 |
| 20260508071542 | 50 | 0 | 0.0 | 0.0 | 0.00 | 0.00 | 0.00 | 85 | 1016.7 |
| 20260508070037 | 51 | 0 | 0.0 | 0.0 | 0.00 | 0.00 | 0.00 | 85 | 1016.6 |
| 20260508064553 | 51 | 0 | 0.0 | 0.0 | 0.00 | 0.00 | 0.00 | 84 | 1016.6 |
| 20260508063040 | 51 | 0 | 0.0 | 0.0 | 0.00 | 0.00 | 0.00 | 83 | 1016.6 |
| 20260508061542 | 51 | 0 | 0.0 | 0.0 | 0.00 | 0.00 | 0.00 | 82 | 1016.5 |
| 20260508060039 | 52 | 0 | 0.0 | 0.0 | 0.00 | 0.00 | 0.00 | 81 | 1016.6 |
| 20260508054540 | 52 | 0 | 0.0 | 0.0 | 0.00 | 0.00 | 0.00 | 81 | 1016.7 |
| 20260508053036 | 52 | 0 | 0.0 | 0.0 | 0.00 | 0.00 | 0.00 | 81 | 1016.8 |
| 20260508051535 | 53 | 0 | 0.0 | 0.0 | 0.00 | 0.00 | 0.00 | 79 | 1016.8 |
| 20260508050045 | 53 | 0 | 0.0 | 0.0 | 0.00 | 0.00 | 0.00 | 78 | 1016.7 |
| 20260508044538 | 54 | 0 | 0.0 | 0.0 | 0.00 | 0.00 | 0.00 | 77 | 1016.7 |
| 20260508043037 | 55 | 0 | 0.0 | 0.0 | 0.00 | 0.00 | 0.00 | 76 | 1016.8 |
| 20260508041537 | 56 | 0 | 0.0 | 0.0 | 0.00 | 0.00 | 0.00 | 75 | 1016.7 |
| 20260508040037 | 57 | 0 | 0.0 | 0.0 | 0.00 | 0.00 | 0.00 | 74 | 1016.8 |
| 20260508034539 | 57 | 0 | 0.0 | 0.0 | 0.00 | 0.00 | 0.00 | 72 | 1016.7 |
| 20260508033038 | 58 | 0 | 0.0 | 0.0 | 0.00 | 0.00 | 0.00 | 70 | 1016.7 |
| 20260508031537 | 59 | 0 | 0.0 | 0.0 | 0.00 | 0.00 | 0.00 | 69 | 1016.7 |
| 20260508030037 | 60 | 0 | 0.0 | 0.0 | 0.00 | 0.00 | 0.00 | 66 | 1016.6 |
| 20260508024536 | 61 | 0 | 0.0 | 0.0 | 0.00 | 0.00 | 0.00 | 66 | 1016.7 |
| 20260508023039 | 62 | 0 | 0.0 | 0.0 | 0.00 | 0.00 | 0.00 | 64 | 1016.8 |
| 20260508021538 | 62 | 0 | 0.0 | 0.0 | 0.00 | 0.00 | 0.00 | 62 | 1016.8 |
| 20260508020042 | 63 | 0 | 0.0 | 0.0 | 0.00 | 0.00 | 0.00 | 60 | 1016.9 |
| 20260508014538 | 62 | 0 | 0.0 | 0.0 | 0.00 | 0.00 | 0.00 | 63 | 1016.9 |
| 20260508013037 | 63 | 0 | 0.0 | 0.0 | 0.00 | 0.00 | 0.00 | 60 | 1017.1 |
| 20260508011549 | 63 | 0 | 0.0 | 0.0 | 0.00 | 0.00 | 0.00 | 62 | 1017.2 |
| 20260508010105 | 63 | 0 | 0.0 | 0.0 | 0.00 | 0.00 | 0.00 | 60 | 1017.4 |
| 20260508004550 | 63 | 0 | 0.0 | 0.0 | 0.00 | 0.00 | 0.00 | 57 | 1017.5 |
| 20260508003042 | 63 | 0 | 0.0 | 0.0 | 0.00 | 0.00 | 0.00 | 58 | 1017.6 |
| 20260508001541 | 63 | 0 | 0.0 | 0.0 | 0.00 | 0.00 | 0.00 | 60 | 1017.6 |
| 20260508000037 | 64 | 0 | 0.0 | 0.0 | 0.00 | 0.00 | 0.00 | 59 | 1017.8 |
| 20260507234537 | 65 | 0 | 0.0 | 0.0 | 0.00 | 0.00 | 0.00 | 57 | 1017.7 |
| 20260507233037 | 64 | 0 | 0.0 | 0.0 | 0.00 | 0.00 | 0.00 | 57 | 1017.9 |
| 20260507231539 | 64 | 0 | 0.0 | 0.0 | 0.00 | 0.00 | 0.00 | 59 | 1018.0 |
| 20260507230038 | 63 | 0 | 0.0 | 0.0 | 0.00 | 0.00 | 0.00 | 60 | 1018.1 |
| 20260507224545 | 63 | 0 | 0.0 | 0.0 | 0.00 | 0.00 | 0.00 | 60 | 1018.2 |
| 20260507223037 | 63 | 0 | 0.0 | 0.0 | 0.00 | 0.00 | 0.00 | 58 | 1018.4 |
| 20260507221539 | 63 | 0 | 0.0 | 0.0 | 0.00 | 0.00 | 0.00 | 58 | 1018.5 |
| 20260507220039 | 63 | 0 | 0.0 | 0.0 | 0.00 | 0.00 | 0.00 | 59 | 1018.5 |
| 20260507214537 | 64 | 0 | 0.0 | 0.0 | 0.00 | 0.00 | 0.00 | 58 | 1018.7 |
| 20260507213037 | 63 | 0 | 0.0 | 0.0 | 0.00 | 0.00 | 0.00 | 58 | 1018.8 |
| 20260507211543 | 63 | 0 | 0.0 | 0.0 | 0.00 | 0.00 | 0.00 | 59 | 1019.1 |
| 20260507210039 | 63 | 0 | 0.0 | 0.0 | 0.00 | 0.00 | 0.00 | 60 | 1019.1 |
| 20260507204548 | 63 | 0 | 0.0 | 0.0 | 0.00 | 0.00 | 0.00 | 60 | 1019.3 |
| 20260507203038 | 63 | 0 | 0.0 | 0.0 | 0.00 | 0.00 | 0.00 | 58 | 1019.5 |
| 20260507201540 | 60 | 0 | 0.0 | 0.0 | 0.00 | 0.00 | 0.00 | 64 | 1019.7 |
| 20260507200039 | 59 | 0 | 0.0 | 0.0 | 0.00 | 0.00 | 0.00 | 65 | 1019.7 |
| 20260507194538 | 59 | 0 | 0.0 | 0.0 | 0.00 | 0.00 | 0.00 | 66 | 1019.7 |
| 20260507193038 | 58 | 0 | 0.0 | 0.0 | 0.00 | 0.00 | 0.00 | 64 | 1019.8 |
| 20260507191537 | 58 | 0 | 0.0 | 0.0 | 0.00 | 0.00 | 0.00 | 66 | 1020.0 |
| 20260507190041 | 57 | 0 | 0.0 | 0.0 | 0.00 | 0.00 | 0.00 | 66 | 1020.1 |
| 20260507184538 | 57 | 0 | 0.0 | 0.0 | 0.00 | 0.00 | 0.00 | 70 | 1020.2 |
| 20260507183041 | 58 | 0 | 0.0 | 0.0 | 0.00 | 0.00 | 0.00 | 68 | 1020.4 |
| 20260507181537 | 60 | 0 | 0.0 | 0.0 | 0.00 | 0.00 | 0.00 | 67 | 1020.4 |
| 20260507180040 | 59 | 0 | 0.0 | 0.0 | 0.00 | 0.00 | 0.00 | 66 | 1020.4 |
| 20260507174540 | 58 | 0 | 0.0 | 0.0 | 0.00 | 0.00 | 0.00 | 73 | 1020.5 |
| 20260507173041 | 58 | 0 | 0.0 | 0.0 | 0.00 | 0.00 | 0.00 | 73 | 1020.6 |